Weather Service Report


310 
ASUS46 KLOX 221303
RWRCA 

SOUTHERN CALIFORNIA WEATHER ROUNDUP
NATIONAL WEATHER SERVICE OXNARD CALIFORNIA
500 AM PST SUN JAN 22 2017

NOTE: "FAIR" INDICATES FEW OR NO CLOUDS BELOW 12,000 FEET WITH NO 
SIGNIFICANT WEATHER AND/OR OBSTRUCTIONS TO VISIBILITY.

  -  STATIONS PRECEEDED BY AN ASTERISK (*) ARE NOT NWS OR FAA 
     STATIONS AND ARE NOT SUBJECT TO NWS AND FAA QUALITY CONTROL.

CAZ041-042-087-221400-
LA AND ORANGE COUNTY COASTAL AREAS

  
CITY           SKY/WX    TMP DP  RH WIND       PRES   REMARKS
L.A. DOWNTOWN  CLOUDY    54  47  77 E6        30.08F                  
L.A. AIRPORT   LGT RAIN  52  49  89 E12       30.07F                  
LONG BEACH     LGT RAIN  51  48  89 E6        30.09F                  

CITY           SKY/WX    TMP DP  RH WIND       PRES   REMARKS
AVALON           N/A     54 N/A N/A CALM        N/A                   
FULLERTON      LGT RAIN  52  48  86 NE3       30.09F                  
*GETTY CENTER    N/A     45  45 100 E5G12       N/A                   
HAWTHORNE      LGT RAIN  52  48  86 E7        30.08F                  
*LEO CARRILLO    N/A     52  48  86 NE9         N/A                   
*LOS ALAMITOS  DRIZZLE   52  48  87 NE6       30.09S                  
*REDONDO BEACH   N/A     51  48  88 W1        30.07S                  
SANTA ANA      CLOUDY    52  48  86 E3        30.09F                  
STA MONICA APT LGT RAIN  51  48  89 E5        30.07F                  
*UCLA            N/A     50  45  81 E8        30.03F                  

$$

CAZ547-548-048-221400-
LA COUNTY VALLEYS AND INLAND EMPIRE

  
CITY           SKY/WX    TMP DP  RH WIND       PRES   REMARKS
BURBANK        LGT RAIN  50  45  83 SE8       30.05F                  
VAN NUYS       LGT RAIN  49  49 100 SE7       30.05F                  

CITY           SKY/WX    TMP DP  RH WIND       PRES   REMARKS
CORONA AIRPORT CLOUDY    48  46  93 SE3       30.10F                  
*CHATSWORTH      N/A     49  46  90 SE1       30.09F                  
CHINO          LGT RAIN  50  47  89 E3        30.10F                  
MARCH AFB      LGT RAIN  46  46 100 E3        30.08F                  
*NORTHRIDGE      N/A     48  45  87 E2          N/A                   
ONTARIO        LGT RAIN  48  46  93 CALM      30.08F                  
*PASADENA        N/A     48  46  93 E2          N/A                   
RIVERSIDE      LGT RAIN  48  46  93 E5        30.09F                  
SAN BERNARDINO LGT RAIN  50  44  81 E6        30.10F                  
*SAN RAFAEL HI   N/A     43  43 100 S14         N/A                   
*SAUGUS          N/A     46  45  95 S10G23      N/A                   
*WHITEMAN AP   NOT AVBL                                               
*WHITTIER HILL   N/A     47  46  97 NE8         N/A                   
*WOODLAND HILL   N/A     48  46  93 NE1         N/A                   

$$

CAZ054-055-221400-
LA AND SAN BERNARDINO COUNTY MOUNTAINS

  
CITY           SKY/WX    TMP DP  RH WIND       PRES   REMARKS
*BIG BEAR AIRP LGT SNOW  28  27  93 W13       30.01S WCI  18          
*CHILAO          N/A     32  31  96 S12G24      N/A  WCI  23          
SANDBERG       SNOW      36  35  96 S29G44    29.94S VSB 1/4 WCI  23  
*WARM SPRINGS    N/A     36  36  99 S6          N/A  WCI  31          

$$

CAZ028-029-059-060-099-221400-
ANTELOPE VALLEY AND SURROUNDING AREAS

  
CITY           SKY/WX    TMP DP  RH WIND       PRES   REMARKS
LANCASTER      LGT RAIN  44  38  79 SW10      29.99S                  
PALMDALE       MOCLDY    46  36  68 S13G21    29.99F                  
*POPPY PARK      N/A     42  40  94 SW13        N/A                   

CITY           SKY/WX    TMP DP  RH WIND       PRES   REMARKS
29 PALMS       LGT RAIN  46  36  68 S10       30.12R                  
BARSTOW/DAGGET LGT RAIN  45  40  82 N6        30.03R                  
BISHOP         LGT SNOW  33  31  92 S25G36    29.85R VSB 1   WCI  20  
CHINA LAKE     LGT RAIN  57  39  51 SE10      29.98S                  
EDWARDS AFB    CLOUDY    42  40  92 S6        29.98S                  
MOJAVE         MOCLDY    41  37  87 SW15      29.95F WCI  33          
NEEDLES        CLOUDY    51  41  68 SW5       30.06F                  
VICTORVILLE    LGT RAIN  43  36  75 S18G24    29.98F WCI  34          

$$

CAZ039-040-221400-
VENTURA AND SANTA BARBARA COUNTY COAST

  
CITY           SKY/WX    TMP DP  RH WIND       PRES   REMARKS
CAMARILLO      LGT RAIN  50  48  93 NE13      30.05F                  
NWS OXNARD       N/A     50  47  90 CALM      30.04F                  
OXNARD AIRPORT RAIN      51  47  86 NE12      30.05F FOG              
*POINT MUGU    LGT RAIN  51  48  89 N8        30.06F                  
SBA APT/GOLETA LGT RAIN  50  47  89 E15       30.03R                  
*SANTA BARBARA   N/A     50  45  83 CALM      30.11S                  
*VENTURA         N/A     48  46  94 N7        30.04F                  

$$

CAZ044-045-221400-
VENTURA COUNTY VALLEYS

  
CITY           SKY/WX    TMP DP  RH WIND       PRES   REMARKS
*SIMI VALLEY     N/A     47  46  94 NE1       30.06S                  
*WESTLAKE VILL   N/A     46  43  91 CALM      30.05F                  
*OJAI            N/A     45  43  94 CALM      30.02F                  

$$

CAZ053-221400-
VENTURA COUNTY MOUNTAINS

  
CITY           SKY/WX    TMP DP  RH WIND       PRES   REMARKS
*LOCKWOOD VLY    N/A     28  28 100 NW1         N/A                   
*ROSE VALLEY     N/A     32  34 100 MISG        N/A                   

$$

CAZ034-035-036-221400-
CENTRAL COAST AND SANTA YNEZ VALLEY

  
CITY           SKY/WX    TMP DP  RH WIND       PRES   REMARKS
SAN LUIS OBISP RAIN      51  46  83 SE18G29   29.87F                  
SANTA MARIA    LGT RAIN  50  46  86 SE16      29.88F                  

CITY           SKY/WX    TMP DP  RH WIND       PRES   REMARKS
*CAL POLY SLO    N/A     48  46  93 E10         N/A                   
*LOMPOC          N/A    N/A N/A N/A MISG        N/A                   
*PISMO BEACH     N/A     48  48  98 E1        29.89F                  
*SANTA YNEZ    LGT RAIN  46  43  87 SE13G25   29.95F                  

$$

CAZ037-038-051-221400-
SAN LUIS OBISPO COUNTY INTERIOR AND CUYAMA VALLEY

  
CITY           SKY/WX    TMP DP  RH WIND       PRES   REMARKS
*CUYAMA          N/A     46  39  75 E7        29.84F                  
PASO ROBLES    RAIN      49  45  86 S17G24    29.81F                  

$$

CAZ032-033-061-221400-
SOUTHERN DESERTS

  
CITY           SKY/WX    TMP DP  RH WIND       PRES   REMARKS
BLYTHE         CLOUDY    50  44  80 SE5       30.10S                  
IMPERIAL       CLOUDY    51  42  71 S3        30.09R                  
PALM SPRINGS   CLOUDY    52  43  71 NE7       30.10R                  
THERMAL        LGT RAIN  52  46  80 CALM      30.09R                  

$$

ELSEWHERE ACROSS THE WESTERN UNITED STATES AND MEXICO

  
CITY           SKY/WX    TMP DP  RH WIND       PRES   REMARKS
DENVER, CO     PTCLDY    29  16  58 W10       29.84R WCI  20          
GRAND CANYON,  MOCLDY     4   1  88 CALM      30.09S                  
HONOLULU, HI   MOCLDY    71  53  52 NE20G33   30.14F                  
KAHULUI, MAUI  CLOUDY    70  56  61 NE22G37   30.15S                  
LAKE TAHOE, CA LGT SNOW  35  31  85 S21G35    29.54F FOG     WCI  24  
LAS VEGAS, NV  LGT RAIN  48  35  60 S8        30.01R                  
MAMMOTH LAKES, SNOW      22  22 100 SE6       29.78F VSB 1/2 WCI  14  
MEXICO CITY, M CLEAR     46  36  66 CALM      30.31R                  
PHOENIX, AZ    MOCLDY    45  38  76 E7        30.15R                  
PORTLAND, OR   LGT RAIN  41  40  96 E14       29.39F WCI  33          
RENO, NV       LGT SNOW  32  31  96 NE3       29.59F VSB 1            
SALT LAKE CITY PTCLDY    28  22  78 SE14      29.95F WCI  17          
SAN DIEGO, CA  MOCLDY    54  44  69 CALM      30.11F                  
SAN FRANCISCO, HVY RAIN  54  49  83 S24G45    29.65R                  
SAN JOSE, CA   LGT RAIN  50  46  86 SE24G35   29.68S FOG              
SEATTLE, WA    MOCLDY    41  35  79 N6        29.43F                  
TIJUANA, MEX   PTCLDY    50  43  76 CALM      30.11                   

$$
  
STATION/POSITION TIME  TEMP    WIND        PRES    VSBY  WAVE
                       AIR SEA DIR/SP/G                  HT/PER
                 (UTC) (F)     (DEG/KT/KT) (MB)    (MI)  (FT/S)
POINT ARGUELLO B NOT AVBL
WEST SANTA BARBA 1150   54 57  120/ 25/ 31 1014.3F        19/17
POINT CONCEPTION NOT AVBL
EAST SANTA BARBA 1240           90/ 23/ 31 1016.3F
SANTA MONICA BAY 1240   57 58  110/ 17/ 23 1016.3F

Return to Home page


Western Regional Climate Center, wrcc@dri.edu